Date,TemperatureHighF,TemperatureAvgF,TemperatureLowF,DewpointHighF,DewpointAvgF,DewpointLowF,HumidityHigh,HumidityAvg,HumidityLow,PressureMaxIn,PressureMinIn,WindSpeedMaxMPH,WindSpeedAvgMPH,GustSpeedMaxMPH,PrecipitationSumIn
2013-11-1,61.6,52.7,46.0,56.0,47.0,43.0,97,82,60,29.75,29.41,6,1,14,0.02
2013-11-2,54.5,45.5,38.3,44.0,39.5,35.0,97,81,58,30.11,29.75,7,1,12,0.00
2013-11-3,55.7,23.5,34.4,43.0,-33.8,-99.9,97,31,41,30.29,30.11,4,-509,7,0.01
2013-11-4,56.6,24.3,43.7,43.0,-36.0,-99.9,78,29,57,30.29,30.22,4,-546,11,0.00
2013-11-5,-200.0,0.0,200.0,-99.9,-99.9,-99.9,0,0,100,30.33,30.10,0,-999,0,0.00
2013-11-6,-200.0,0.0,200.0,-99.9,-99.9,-99.9,0,0,100,30.10,29.92,0,-999,0,0.00
2013-11-7,49.1,25.1,30.5,34.0,-23.3,-99.9,96,37,43,30.31,30.07,4,-410,9,0.00
2013-11-8,54.9,29.9,30.5,34.0,-14.6,-99.9,95,37,33,30.36,30.17,5,-336,9,0.00
2013-11-9,61.8,50.1,38.8,42.0,35.9,27.0,78,59,47,30.17,30.01,17,2,17,0.00
2013-11-10,52.6,43.9,32.9,42.0,32.3,28.0,85,65,41,30.32,30.12,6,1,11,0.00
2013-11-11,60.4,43.7,31.7,44.0,33.8,27.0,93,71,34,30.29,30.08,4,1,15,0.08
2013-11-12,37.9,30.1,22.7,31.0,24.2,20.0,93,79,54,30.65,30.29,8,1,14,0.01
2013-11-13,39.9,28.6,17.7,24.0,18.7,16.0,94,70,40,30.65,30.38,6,1,8,0.00
2013-11-14,54.8,41.4,29.6,23.0,20.8,19.0,68,47,26,30.38,30.11,9,2,13,0.00
2013-11-15,53.7,45.7,38.7,42.0,29.2,20.0,87,54,39,30.11,30.02,6,2,9,0.00
2013-11-16,61.3,53.8,45.4,58.0,50.6,42.0,96,89,75,30.03,29.75,11,3,16,0.05
2013-11-17,66.9,60.4,49.8,64.0,55.8,42.0,95,85,64,29.78,29.40,20,4,25,0.46
2013-11-18,52.4,44.3,33.8,42.0,34.9,28.0,91,71,47,30.20,29.80,11,2,16,0.00
2013-11-19,45.1,34.5,27.4,30.0,27.4,25.0,90,76,53,30.33,30.20,7,1,10,0.00
2013-11-20,52.0,39.5,29.6,34.0,29.7,25.0,84,69,49,30.27,30.14,8,2,11,0.00
2013-11-21,57.6,50.2,42.9,51.0,43.6,34.0,95,79,61,30.23,30.14,7,1,10,0.07
2013-11-22,52.8,45.7,34.9,52.0,43.5,31.0,97,92,83,30.39,30.12,8,1,15,0.11
2013-11-23,34.5,28.0,18.2,31.0,21.0,9.0,95,76,55,30.62,30.38,6,1,14,0.00
2013-11-24,30.1,19.8,11.0,14.0,10.1,8.0,88,67,45,30.72,30.51,5,0,6,0.00
2013-11-25,35.4,28.0,17.3,27.0,17.3,11.0,86,65,44,30.51,30.17,5,1,9,0.00
2013-11-26,36.1,32.7,30.6,29.0,26.9,23.0,91,79,65,30.21,29.95,7,1,12,0.00
2013-11-27,30.5,22.1,15.9,23.0,13.7,8.0,81,70,51,30.31,30.00,9,2,12,0.00
2013-11-28,37.5,25.5,13.9,19.0,14.7,10.0,84,65,42,30.45,30.27,7,1,13,0.00
2013-11-29,41.5,30.7,22.8,23.0,20.3,17.0,78,66,44,30.61,30.45,6,1,8,0.00
2013-11-30,53.5,40.0,26.4,31.0,25.8,22.0,85,60,36,30.46,30.13,6,2,12,0.00